Location: Hamilton
(37.7830°S, 175.2830°E)
Time: 08:44:07
(UTC+13:00)

Cosmos 1862 - Pass Details

Date: 24 January 2019
Orbit: 540 x 556 km, 82.5° (Epoch: 20 February)

Event Time Altitude Azimuth Distance (km) Brightness Sun altitude
Rises 22:23:22 0° 191° (S) 2,752 7.8 -18.0°
Reaches altitude 10° 22:25:34 10° 193° (SSW) 1,847 6.8 -18.3°
Maximum altitude 22:29:36 66° 275° (W) 605 3.6 -18.8°
Enters shadow 22:31:25 31° 348° (NNW) 987 4.3 -19.1°
